TimeEEST,TemperatureF,Dew PointF,Humidity,Sea Level PressureIn,VisibilityMPH,Wind Direction,Wind SpeedMPH,Gust SpeedMPH,PrecipitationIn,Events,Conditions,WindDirDegrees,DateUTC
12:20 AM,53.6,44.6,72,29.92,-9999.0,North,4.6,-,N/A,,Unknown,350,2012-10-09 21:20:00
12:50 AM,53.6,44.6,72,29.92,-9999.0,North,4.6,-,N/A,,Unknown,350,2012-10-09 21:50:00
1:20 AM,53.6,44.6,72,29.92,-9999.0,Variable,1.2,-,N/A,,Unknown,0,2012-10-09 22:20:00
1:50 AM,53.6,46.4,77,29.92,-9999.0,Variable,1.2,-,N/A,,Unknown,0,2012-10-09 22:50:00
2:20 AM,51.8,44.6,76,29.92,-9999.0,Variable,1.2,-,N/A,,Unknown,0,2012-10-09 23:20:00
2:50 AM,53.6,46.4,77,29.89,-9999.0,Calm,Calm,-,N/A,,Unknown,0,2012-10-09 23:50:00
3:20 AM,51.8,44.6,76,29.89,-9999.0,Variable,1.2,-,N/A,,Unknown,0,2012-10-10 00:20:00
3:50 AM,51.8,44.6,76,29.89,-9999.0,Variable,1.2,-,N/A,,Unknown,0,2012-10-10 00:50:00
4:20 AM,50.0,44.6,82,29.89,-9999.0,Variable,3.5,-,N/A,,Unknown,0,2012-10-10 01:20:00
4:50 AM,51.8,44.6,76,29.89,-9999.0,NNW,4.6,-,N/A,,Unknown,340,2012-10-10 01:50:00
5:20 AM,51.8,46.4,82,29.89,-9999.0,Variable,2.3,-,N/A,,Unknown,0,2012-10-10 02:20:00
5:50 AM,51.8,46.4,82,29.89,-9999.0,Variable,1.2,-,N/A,,Unknown,0,2012-10-10 02:50:00
6:20 AM,51.8,46.4,82,29.89,-9999.0,Variable,2.3,-,N/A,Rain,Light Rain,0,2012-10-10 03:20:00
6:50 AM,51.8,46.4,82,29.89,-9999.0,Variable,1.2,-,N/A,,Unknown,0,2012-10-10 03:50:00
7:20 AM,51.8,46.4,82,29.89,-9999.0,Variable,3.5,-,N/A,,Unknown,0,2012-10-10 04:20:00
7:50 AM,51.8,46.4,82,29.89,6.2,Calm,Calm,-,N/A,,Scattered Clouds,0,2012-10-10 04:50:00
8:50 AM,53.6,46.4,77,29.89,6.2,Calm,Calm,-,N/A,,Scattered Clouds,0,2012-10-10 05:50:00
9:50 AM,55.4,46.4,72,29.92,6.2,Calm,Calm,-,N/A,,Mostly Cloudy,0,2012-10-10 06:50:00
10:50 AM,57.2,46.4,67,29.92,6.2,WNW,4.6,-,N/A,,Mostly Cloudy,290,2012-10-10 07:50:00
11:50 AM,60.8,46.4,59,29.92,6.2,NNW,6.9,-,N/A,,Mostly Cloudy,330,2012-10-10 08:50:00
1:50 PM,60.8,46.4,59,29.92,6.2,NNW,6.9,-,N/A,,Mostly Cloudy,340,2012-10-10 10:50:00
2:50 PM,64.4,44.6,49,29.89,6.2,Calm,Calm,-,N/A,,Mostly Cloudy,0,2012-10-10 11:50:00
3:50 PM,62.6,44.6,52,29.89,6.2,Calm,Calm,-,N/A,,Mostly Cloudy,0,2012-10-10 12:50:00
4:50 PM,62.6,48.2,59,29.89,6.2,SE,5.8,-,N/A,,Mostly Cloudy,140,2012-10-10 13:50:00
6:50 PM,60.8,46.4,59,29.89,6.2,Calm,Calm,-,N/A,,Mostly Cloudy,0,2012-10-10 15:50:00
7:50 PM,60.8,46.4,59,29.89,6.2,Calm,Calm,-,N/A,,Mostly Cloudy,0,2012-10-10 16:50:00
8:50 PM,59.0,46.4,63,29.89,6.2,Calm,Calm,-,N/A,,Mostly Cloudy,0,2012-10-10 17:50:00
9:20 PM,59.0,46.4,63,29.92,-9999.0,Variable,3.5,-,N/A,,Unknown,0,2012-10-10 18:20:00
9:50 PM,59.0,46.4,63,29.92,-9999.0,Variable,2.3,-,N/A,,Unknown,0,2012-10-10 18:50:00
10:20 PM,59.0,46.4,63,29.92,-9999.0,Variable,2.3,-,N/A,,Unknown,0,2012-10-10 19:20:00
10:50 PM,59.0,46.4,63,29.92,-9999.0,Variable,3.5,-,N/A,Rain,Light Rain,0,2012-10-10 19:50:00
11:20 PM,59.0,46.4,63,29.92,-9999.0,Variable,2.3,-,N/A,,Unknown,0,2012-10-10 20:20:00
11:50 PM,59.0,46.4,63,29.92,-9999.0,Variable,2.3,-,N/A,,Unknown,0,2012-10-10 20:50:00